User: anonymous   Login
Location: Unspecified
(0.0000°N, 0.0000°E)
Time: 23:50:48
(UTC+00:00)
Language:

OBJECT E - Orbit

View from above orbital plane
View from above orbital plane
View from above satellite
View from above satellite

Ground track
Ground track

The orbit is defined by the following mean orbital elements,

1 55137U          26145.65311170 +.00000000 +00000-0 +30657-3 0 00000
2 55137  97.1443 221.1247 0004414 172.5725 187.5595 15.54083472    01
Epoch (UTC): 25 May 2026 15:40:28
Eccentricity: 0.0004414
inclination: 97.1443°
perigee height: 402 km
apogee height: 408 km
right ascension of ascending node: 221.1247°
argument of perigee: 172.5725°
revolutions per day: 15.54083472
mean anomaly at epoch: 187.5595°

The dashed part of the orbit path shows where the satellite is in the earth's shadow,  

DLR